Location: Emblem
(62.4273°N, 6.4710°E)
Time: 06:34:24
(UTC+02:00)

Transit 2A - Pass Details

Date: 10 March 2024
Orbit: 596 x 956 km, 66.7° (Epoch: 24 April)

Event Time Altitude Azimuth Distance (km) Brightness Sun altitude
Rises 21:14:24 0° 280° (W) 2,883 10.2 -19.8°
Reaches altitude 10° 21:16:39 10° 286° (WNW) 2,005 9.2 -20.0°
Maximum altitude 21:21:03 50° 2° (N) 840 6.4 -20.4°
Enters shadow 21:23:22 27° 65° (ENE) 1,303 6.9 -20.6°
